Jacksonville Craig, FL

8:28 AM EDT on May 27, 2018 (GMT -0400)
Craig Municipal

Weather History for KCRG - March, 2014

Change the Weather History Date:

Wednesday, March 19, 2014

  Actual Average Record
Temperature  
Mean Temperature 56 °F -  
Max Temperature 62 °F 70 °F 87 °F (2011)
Min Temperature 50 °F 52 °F 39 °F (2007)
Degree Days  
Heating Degree Days 9    
Growing Degree Days 6 (Base 50)    
Moisture  
Dew Point 51 °F    
Average Humidity 83    
Maximum Humidity 89    
Minimum Humidity 70    
Precipitation  
Precipitation 0.00 in - - ()
Sea Level Pressure  
Sea Level Pressure 30.11 in    
Wind  
Wind Speed 4 mph (NNE)    
Max Wind Speed 7 mph    
Max Gust Speed -    
Visibility 7 miles    
Events      
Averages and records for this station are not official NWS values.
T = Trace of Precipitation, MM = Missing Value Source: NWS Daily Summary

Daily Weather History Graph

Daily Weather History Graph

Search for Another Location

Airport or City:

Astronomy

Mar. 19, 2014 Rise Set
Actual Time 7:31 AM EDT 7:36 PM EDT
Civil Twilight 7:07 AM EDT 8:00 PM EDT
Nautical Twilight 6:39 AM EDT 8:28 PM EDT
Astronomical Twilight 6:11 AM EDT 8:56 PM EDT
Moon 10:38 PM EDT (3/19) 9:09 AM EDT (3/19)
Length of Visible Light 12h 53m
Length of Day
12h 05m
Waning Gibbous, 91% of the Moon is Illuminated
Mar 19
Waning Gibbous
Mar 23
Last Quarter
Mar 30
New
Apr 7
First Quarter
Apr 15
Full

Hourly Weather History & Observations

Time (EDT) Temp. Dew Point Humidity Pressure Visibility Wind Dir Wind Speed Gust Speed Precip Events Conditions
12:53 AM 55.9 °F 50.0 °F 80% 30.10 in 10.0 mi ENE 6.9 mph - N/A   Overcast
1:53 AM 55.9 °F 50.0 °F 80% 30.10 in 10.0 mi ENE 5.8 mph - N/A   Overcast
2:53 AM 55.9 °F 50.0 °F 80% 30.09 in 10.0 mi ENE 3.5 mph - N/A   Overcast
3:51 AM 55.4 °F 51.8 °F 88% 30.08 in 8.0 mi NE 4.6 mph - N/A   Overcast
3:53 AM 55.0 °F 51.1 °F 86% 30.08 in 8.0 mi NNE 3.5 mph - N/A   Overcast
4:53 AM 55.0 °F 51.1 °F 86% 30.08 in 4.0 mi North 5.8 mph - N/A   Overcast
5:04 AM 55.0 °F 51.1 °F 86% 30.08 in 4.0 mi North 4.6 mph - N/A   Overcast
5:53 AM 55.0 °F 51.1 °F 86% 30.10 in 6.0 mi North 6.9 mph - N/A   Overcast
6:53 AM 55.0 °F 51.1 °F 86% 30.11 in 4.0 mi ENE 5.8 mph - N/A   Overcast
7:45 AM 55.0 °F 51.1 °F 86% 30.10 in 4.0 mi NE 6.9 mph - N/A   Overcast
7:53 AM 55.0 °F 51.1 °F 86% 30.11 in 4.0 mi NE 5.8 mph - N/A   Overcast
8:53 AM 55.9 °F 52.0 °F 87% 30.14 in 4.0 mi NNE 6.9 mph - N/A   Overcast
9:53 AM 55.9 °F 52.0 °F 87% 30.16 in 10.0 mi North 5.8 mph - N/A   Overcast
10:53 AM 57.0 °F 52.0 °F 83% 30.17 in 10.0 mi North 5.8 mph - N/A   Overcast
11:53 AM 57.9 °F 51.1 °F 78% 30.17 in 10.0 mi NE 6.9 mph - N/A   Overcast
12:53 PM 59.0 °F 52.0 °F 78% 30.16 in 10.0 mi North 6.9 mph - N/A   Overcast
1:53 PM 59.0 °F 52.0 °F 78% 30.15 in 10.0 mi NNE 4.6 mph - N/A   Overcast
2:53 PM 59.0 °F 52.0 °F 78% 30.14 in 10.0 mi NNW 6.9 mph - N/A   Overcast
3:53 PM 60.1 °F 52.0 °F 75% 30.11 in 10.0 mi Calm Calm - N/A   Overcast
4:53 PM 61.0 °F 52.0 °F 72% 30.10 in 10.0 mi Calm Calm - N/A   Overcast
5:53 PM 62.1 °F 52.0 °F 70% 30.08 in 10.0 mi Calm Calm - N/A   Overcast
6:05 PM 62.1 °F 52.0 °F 70% 30.08 in 10.0 mi Calm Calm - N/A   Overcast
6:53 PM 61.0 °F 52.0 °F 72% 30.07 in 10.0 mi NNW 3.5 mph - N/A   Overcast
7:44 PM 57.0 °F 52.0 °F 83% 30.07 in 8.0 mi East 5.8 mph - N/A   Scattered Clouds
7:53 PM 57.0 °F 52.0 °F 83% 30.06 in 8.0 mi ENE 4.6 mph - N/A   Clear
8:53 PM 55.0 °F 51.1 °F 86% 30.09 in 7.0 mi Calm Calm - N/A   Clear
9:53 PM 52.0 °F 48.9 °F 89% 30.10 in 5.0 mi Calm Calm - N/A   Clear
10:53 PM 52.0 °F 48.0 °F 86% 30.10 in 9.0 mi Calm Calm - N/A   Clear
11:06 PM 51.1 °F 48.0 °F 89% 30.10 in 1.5 mi Calm Calm - N/A   Clear
11:09 PM 51.1 °F 48.0 °F 89% 30.11 in 1.0 mi Calm Calm - N/A   Mist
11:16 PM 50.0 °F 46.9 °F 89% 30.11 in 0.8 mi Calm Calm - N/A   Mist
11:23 PM 51.1 °F 46.9 °F 86% 30.11 in 2.0 mi Calm Calm - N/A   Scattered Clouds
11:31 PM 52.0 °F 48.0 °F 86% 30.11 in 8.0 mi Calm Calm - N/A   Scattered Clouds
11:53 PM 51.1 °F 46.9 °F 86% 30.11 in 10.0 mi Calm Calm - N/A   Clear